Time,TemperatureF,DewpointF,PressureIn,WindDirection,WindDirectionDegrees,WindSpeedMPH,WindSpeedGustMPH,Humidity,HourlyPrecipIn,Conditions,Clouds,dailyrainin,SolarRadiationWatts/m^2,SoftwareType,DateUTC
2013-08-18 00:00:00,61.5,57.0,30.27,NE,36,0.0,0.0,85,0.00,,CLR,0.00,0.00,VWS V14.01,2013-08-18 04:00:00,
2013-08-18 00:01:00,61.5,57.0,30.27,NE,36,0.0,0.0,85,0.00,,CLR,0.00,0.00,VWS V14.01,2013-08-18 04:01:00,
2013-08-18 00:02:00,61.5,57.3,30.27,NE,36,0.0,0.0,86,0.00,,CLR,0.00,0.00,VWS V14.01,2013-08-18 04:02:00,
2013-08-18 00:07:00,61.4,57.2,30.27,NE,36,0.0,0.0,86,0.00,,CLR,0.00,0.00,VWS V14.01,2013-08-18 04:07:00,
2013-08-18 00:12:00,61.3,57.4,30.27,NE,36,0.0,0.0,87,0.00,,CLR,0.00,0.00,VWS V14.01,2013-08-18 04:12:00,
2013-08-18 00:17:00,61.3,57.4,30.27,NE,36,0.0,0.0,87,0.00,,CLR,0.00,0.00,VWS V14.01,2013-08-18 04:17:00,
2013-08-18 00:22:00,61.3,57.4,30.27,NE,36,0.0,0.0,87,0.00,,CLR,0.00,0.00,VWS V14.01,2013-08-18 04:22:00,
2013-08-18 00:27:00,61.2,57.6,30.27,NE,36,0.0,0.0,88,0.00,,CLR,0.00,0.00,VWS V14.01,2013-08-18 04:27:00,
2013-08-18 00:32:00,61.2,57.6,30.27,NE,36,0.0,0.0,88,0.00,,CLR,0.00,0.00,VWS V14.01,2013-08-18 04:32:00,
2013-08-18 00:37:00,61.1,57.5,30.27,NE,36,0.0,0.0,88,0.00,,CLR,0.00,0.00,VWS V14.01,2013-08-18 04:37:00,
2013-08-18 00:43:00,61.1,57.5,30.27,NE,36,0.0,0.0,88,0.00,,CLR,0.00,0.00,VWS V14.01,2013-08-18 04:43:00,
2013-08-18 00:48:00,61.0,57.7,30.26,NE,36,0.0,0.0,89,0.00,,CLR,0.00,0.00,VWS V14.01,2013-08-18 04:48:00,
2013-08-18 00:53:00,61.0,57.7,30.26,NE,36,0.0,0.0,89,0.00,,CLR,0.00,0.00,VWS V14.01,2013-08-18 04:53:00,
2013-08-18 00:58:00,61.0,57.7,30.26,NE,36,0.0,0.0,89,0.00,,CLR,0.00,0.00,VWS V14.01,2013-08-18 04:58:00,
2013-08-18 01:03:00,60.9,57.6,30.26,NE,36,0.0,0.0,89,0.00,,CLR,0.00,0.00,VWS V14.01,2013-08-18 05:03:00,
2013-08-18 01:08:00,60.9,57.6,30.26,NE,36,0.0,0.0,89,0.00,,CLR,0.00,0.00,VWS V14.01,2013-08-18 05:08:00,
2013-08-18 01:13:00,60.9,57.6,30.26,NE,36,0.0,0.0,89,0.00,,CLR,0.00,0.00,VWS V14.01,2013-08-18 05:13:00,
2013-08-18 01:18:00,60.9,57.6,30.26,NE,36,0.0,0.0,89,0.00,,CLR,0.00,0.00,VWS V14.01,2013-08-18 05:18:00,
2013-08-18 01:23:00,60.9,58.0,30.26,NE,36,0.0,0.0,90,0.00,,CLR,0.00,0.00,VWS V14.01,2013-08-18 05:23:00,
2013-08-18 01:28:00,60.8,57.8,30.26,NE,36,0.0,0.0,90,0.00,,CLR,0.00,0.00,VWS V14.01,2013-08-18 05:28:00,
2013-08-18 01:33:00,60.7,57.8,30.26,NE,36,0.0,0.0,90,0.00,,CLR,0.00,0.00,VWS V14.01,2013-08-18 05:33:00,
2013-08-18 01:38:00,60.7,57.8,30.26,NE,36,0.0,0.0,90,0.00,,CLR,0.00,0.00,VWS V14.01,2013-08-18 05:38:00,
2013-08-18 01:43:00,60.6,57.7,30.26,NE,36,0.0,0.0,90,0.00,,CLR,0.00,0.00,VWS V14.01,2013-08-18 05:43:00,
2013-08-18 01:48:00,60.5,57.9,30.26,NE,36,0.0,0.0,91,0.00,,CLR,0.00,0.00,VWS V14.01,2013-08-18 05:48:00,
2013-08-18 01:53:00,60.5,57.9,30.26,NE,36,0.0,0.0,91,0.00,,CLR,0.00,0.00,VWS V14.01,2013-08-18 05:53:00,
2013-08-18 01:58:00,60.4,57.8,30.26,NE,36,0.0,0.0,91,0.00,,CLR,0.00,0.00,VWS V14.01,2013-08-18 05:58:00,
2013-08-18 02:03:00,60.3,57.7,30.26,NE,36,0.0,0.0,91,0.00,,CLR,0.00,0.00,VWS V14.01,2013-08-18 06:03:00,
2013-08-18 02:08:00,60.2,57.6,30.26,NE,36,0.0,0.0,91,0.00,,CLR,0.00,0.00,VWS V14.01,2013-08-18 06:08:00,
2013-08-18 02:13:00,60.0,57.4,30.26,NE,36,0.0,0.0,91,0.00,,CLR,0.00,0.00,VWS V14.01,2013-08-18 06:13:00,
2013-08-18 02:18:00,59.9,57.3,30.25,NE,36,0.0,0.0,91,0.00,,CLR,0.00,0.00,VWS V14.01,2013-08-18 06:18:00,
2013-08-18 02:23:00,59.8,57.2,30.25,NE,36,0.0,0.0,91,0.00,,CLR,0.00,0.00,VWS V14.01,2013-08-18 06:23:00,
2013-08-18 02:28:00,59.6,57.3,30.26,NE,36,0.0,0.0,92,0.00,,CLR,0.00,0.00,VWS V14.01,2013-08-18 06:28:00,
2013-08-18 02:33:00,59.5,57.2,30.26,NE,36,0.0,0.0,92,0.00,,CLR,0.00,0.00,VWS V14.01,2013-08-18 06:33:00,
2013-08-18 02:38:00,59.4,57.1,30.26,NE,36,0.0,0.0,92,0.00,,CLR,0.00,0.00,VWS V14.01,2013-08-18 06:38:00,
2013-08-18 02:43:00,59.2,56.9,30.26,NE,36,0.0,0.0,92,0.00,,CLR,0.00,0.00,VWS V14.01,2013-08-18 06:43:00,
2013-08-18 02:48:00,59.1,56.8,30.26,NE,36,0.0,0.0,92,0.00,,CLR,0.00,0.00,VWS V14.01,2013-08-18 06:48:00,
2013-08-18 02:53:00,59.0,57.0,30.26,NE,36,0.0,0.0,93,0.00,,CLR,0.00,0.00,VWS V14.01,2013-08-18 06:53:00,
2013-08-18 02:58:00,59.0,57.0,30.26,NE,36,0.0,0.0,93,0.00,,CLR,0.00,0.00,VWS V14.01,2013-08-18 06:58:00,
2013-08-18 03:03:00,59.0,57.0,30.26,NE,36,0.0,0.0,93,0.00,,CLR,0.00,0.00,VWS V14.01,2013-08-18 07:03:00,
2013-08-18 03:08:00,59.0,57.0,30.26,NE,36,0.0,0.0,93,0.00,,CLR,0.00,0.00,VWS V14.01,2013-08-18 07:08:00,
2013-08-18 03:13:00,59.0,57.3,30.26,NE,36,0.0,0.0,94,0.00,,CLR,0.00,0.00,VWS V14.01,2013-08-18 07:13:00,
2013-08-18 03:18:00,59.0,57.3,30.26,NE,36,0.0,0.0,94,0.00,,CLR,0.00,0.00,VWS V14.01,2013-08-18 07:18:00,
2013-08-18 03:23:00,59.0,57.3,30.26,NE,36,0.0,0.0,94,0.00,,CLR,0.00,0.00,VWS V14.01,2013-08-18 07:23:00,
2013-08-18 03:28:00,59.0,57.3,30.26,NE,36,0.0,0.0,94,0.00,,CLR,0.00,0.00,VWS V14.01,2013-08-18 07:28:00,
2013-08-18 03:33:00,59.0,57.3,30.26,NE,36,0.0,0.0,94,0.00,,CLR,0.00,0.00,VWS V14.01,2013-08-18 07:33:00,
2013-08-18 03:38:00,59.0,57.3,30.26,NE,36,0.0,0.0,94,0.00,,CLR,0.00,0.00,VWS V14.01,2013-08-18 07:38:00,
2013-08-18 03:43:00,58.8,57.1,30.27,NE,36,0.0,0.0,94,0.00,,CLR,0.00,0.00,VWS V14.01,2013-08-18 07:43:00,
2013-08-18 03:48:00,58.6,56.9,30.27,NE,36,0.0,0.0,94,0.00,,CLR,0.00,0.00,VWS V14.01,2013-08-18 07:48:00,
2013-08-18 03:53:00,58.5,56.8,30.27,NE,36,0.0,0.0,94,0.00,,CLR,0.00,0.00,VWS V14.01,2013-08-18 07:53:00,
2013-08-18 03:58:00,58.4,56.7,30.27,NE,36,0.0,0.0,94,0.00,,CLR,0.00,0.00,VWS V14.01,2013-08-18 07:58:00,
2013-08-18 04:03:00,58.2,56.5,30.27,NE,36,0.0,0.0,94,0.00,,CLR,0.00,0.00,VWS V14.01,2013-08-18 08:03:00,
2013-08-18 04:08:00,58.0,56.3,30.27,NE,36,0.0,0.0,94,0.00,,CLR,0.00,0.00,VWS V14.01,2013-08-18 08:08:00,
2013-08-18 04:13:00,57.9,56.2,30.27,NE,36,0.0,0.0,94,0.00,,CLR,0.00,0.00,VWS V14.01,2013-08-18 08:13:00,
2013-08-18 04:18:00,57.8,56.1,30.27,NE,36,0.0,0.0,94,0.00,,CLR,0.00,0.00,VWS V14.01,2013-08-18 08:18:00,
2013-08-18 04:23:00,57.7,56.3,30.27,NE,36,0.0,0.0,95,0.00,,CLR,0.00,0.00,VWS V14.01,2013-08-18 08:23:00,
2013-08-18 04:28:00,57.7,56.3,30.27,NE,36,0.0,0.0,95,0.00,,CLR,0.00,0.00,VWS V14.01,2013-08-18 08:28:00,
2013-08-18 04:33:00,57.6,56.2,30.27,NE,36,0.0,0.0,95,0.00,,CLR,0.00,0.00,VWS V14.01,2013-08-18 08:33:00,
2013-08-18 04:38:00,57.5,56.1,30.27,NE,36,0.0,0.0,95,0.00,,CLR,0.00,0.00,VWS V14.01,2013-08-18 08:38:00,
2013-08-18 04:43:00,57.5,56.1,30.27,NE,36,0.0,0.0,95,0.00,,CLR,0.00,0.00,VWS V14.01,2013-08-18 08:43:00,
2013-08-18 04:48:00,57.5,56.1,30.27,NE,36,0.0,0.0,95,0.00,,CLR,0.00,0.00,VWS V14.01,2013-08-18 08:48:00,
2013-08-18 04:53:00,57.4,56.0,30.26,NE,36,0.0,0.0,95,0.00,,CLR,0.00,0.00,VWS V14.01,2013-08-18 08:53:00,
2013-08-18 04:58:00,57.5,56.1,30.26,NE,36,0.0,0.0,95,0.00,,CLR,0.00,0.00,VWS V14.01,2013-08-18 08:58:00,
2013-08-18 05:03:00,57.5,56.1,30.26,NE,36,0.0,0.0,95,0.00,,CLR,0.00,0.00,VWS V14.01,2013-08-18 09:03:00,
2013-08-18 05:09:00,57.4,56.3,30.26,NE,36,0.0,0.0,96,0.00,,CLR,0.00,0.00,VWS V14.01,2013-08-18 09:09:00,
2013-08-18 05:14:00,57.4,56.3,30.26,NE,36,0.0,0.0,96,0.00,,CLR,0.00,0.00,VWS V14.01,2013-08-18 09:14:00,
2013-08-18 05:19:00,57.4,56.3,30.26,NE,36,0.0,0.0,96,0.00,,CLR,0.00,0.00,VWS V14.01,2013-08-18 09:19:00,
2013-08-18 05:24:00,57.3,56.2,30.26,NE,36,0.0,0.0,96,0.00,,CLR,0.00,0.00,VWS V14.01,2013-08-18 09:24:00,
2013-08-18 05:29:00,57.3,56.2,30.26,NE,36,0.0,0.0,96,0.00,,CLR,0.00,0.00,VWS V14.01,2013-08-18 09:29:00,
2013-08-18 05:34:00,57.2,56.1,30.26,NE,36,0.0,0.0,96,0.00,,CLR,0.00,0.00,VWS V14.01,2013-08-18 09:34:00,
2013-08-18 05:39:00,57.2,56.1,30.26,NE,36,0.0,0.0,96,0.00,,CLR,0.00,0.00,VWS V14.01,2013-08-18 09:39:00,
2013-08-18 05:44:00,57.1,56.0,30.26,NE,36,0.0,0.0,96,0.00,,CLR,0.00,0.00,VWS V14.01,2013-08-18 09:44:00,
2013-08-18 05:49:00,57.1,56.0,30.27,NE,36,0.0,0.0,96,0.00,,CLR,0.00,0.00,VWS V14.01,2013-08-18 09:49:00,
2013-08-18 05:54:00,57.1,56.0,30.27,NE,36,0.0,0.0,96,0.00,,CLR,0.00,0.00,VWS V14.01,2013-08-18 09:54:00,
2013-08-18 05:59:00,56.9,55.8,30.27,NE,36,0.0,0.0,96,0.00,,CLR,0.00,0.00,VWS V14.01,2013-08-18 09:59:00,
2013-08-18 06:04:00,56.8,55.7,30.27,NE,36,0.0,0.0,96,0.00,,CLR,0.00,0.00,VWS V14.01,2013-08-18 10:04:00,
2013-08-18 06:09:00,56.7,55.6,30.27,NE,36,0.0,0.0,96,0.00,,CLR,0.00,9.00,VWS V14.01,2013-08-18 10:09:00,
2013-08-18 06:14:00,56.6,55.5,30.27,NE,36,0.0,0.0,96,0.00,,CLR,0.00,14.00,VWS V14.01,2013-08-18 10:14:00,
2013-08-18 06:19:00,56.5,55.4,30.27,NE,36,0.0,0.0,96,0.00,,CLR,0.00,18.00,VWS V14.01,2013-08-18 10:19:00,
2013-08-18 06:24:00,56.6,55.5,30.27,NE,36,0.0,0.0,96,0.00,,CLR,0.00,21.00,VWS V14.01,2013-08-18 10:24:00,
2013-08-18 06:29:00,56.7,55.6,30.27,NE,36,0.0,0.0,96,0.00,,CLR,0.00,28.00,VWS V14.01,2013-08-18 10:29:00,
2013-08-18 06:34:00,56.8,55.7,30.27,NE,36,0.0,0.0,96,0.00,,CLR,0.00,35.00,VWS V14.01,2013-08-18 10:34:00,
2013-08-18 06:39:00,56.9,55.8,30.27,NE,36,0.0,0.0,96,0.00,,CLR,0.00,46.00,VWS V14.01,2013-08-18 10:39:00,
2013-08-18 06:44:00,57.0,56.2,30.27,NE,36,0.0,0.0,97,0.00,,CLR,0.00,49.00,VWS V14.01,2013-08-18 10:44:00,
2013-08-18 06:49:00,57.3,56.5,30.27,NE,36,0.0,0.0,97,0.00,,CLR,0.00,47.00,VWS V14.01,2013-08-18 10:49:00,
2013-08-18 06:54:00,57.5,56.7,30.27,NE,36,0.0,0.0,97,0.00,,CLR,0.00,54.00,VWS V14.01,2013-08-18 10:54:00,
2013-08-18 06:59:00,57.6,56.8,30.27,NE,36,0.0,0.0,97,0.00,,CLR,0.00,72.00,VWS V14.01,2013-08-18 10:59:00,
2013-08-18 07:04:00,57.7,56.9,30.27,NE,36,0.0,0.0,97,0.00,,CLR,0.00,74.00,VWS V14.01,2013-08-18 11:04:00,
2013-08-18 07:09:00,57.9,57.1,30.27,NE,36,0.0,0.0,97,0.00,,CLR,0.00,127.00,VWS V14.01,2013-08-18 11:09:00,
2013-08-18 07:14:00,58.1,57.3,30.28,NE,36,0.0,0.0,97,0.00,,CLR,0.00,120.00,VWS V14.01,2013-08-18 11:14:00,
2013-08-18 07:19:00,58.1,57.3,30.28,NE,36,0.0,0.0,97,0.00,,CLR,0.00,151.00,VWS V14.01,2013-08-18 11:19:00,
2013-08-18 07:24:00,58.4,57.6,30.28,NE,36,0.0,0.0,97,0.00,,CLR,0.00,214.00,VWS V14.01,2013-08-18 11:24:00,
2013-08-18 07:29:00,59.0,58.2,30.28,NE,36,0.0,0.0,97,0.00,,CLR,0.00,229.00,VWS V14.01,2013-08-18 11:29:00,
2013-08-18 07:34:00,59.1,58.2,30.28,NE,36,0.0,0.0,97,0.00,,CLR,0.00,250.00,VWS V14.01,2013-08-18 11:34:00,
2013-08-18 07:39:00,59.9,58.8,30.27,NE,36,0.0,2.0,96,0.00,,CLR,0.00,258.00,VWS V14.01,2013-08-18 11:39:00,
2013-08-18 07:44:00,60.7,59.6,30.27,NE,36,0.0,2.0,96,0.00,,CLR,0.00,295.00,VWS V14.01,2013-08-18 11:44:00,
2013-08-18 07:49:00,61.3,59.6,30.28,NE,36,0.0,3.0,94,0.00,,CLR,0.00,294.00,VWS V14.01,2013-08-18 11:49:00,
2013-08-18 07:54:00,62.2,59.8,30.28,NE,36,0.0,2.0,92,0.00,,CLR,0.00,338.00,VWS V14.01,2013-08-18 11:54:00,
2013-08-18 07:59:00,63.0,60.0,30.28,NE,36,0.0,3.0,90,0.00,,CLR,0.00,144.00,VWS V14.01,2013-08-18 11:59:00,
2013-08-18 08:04:00,63.3,60.3,30.28,NE,36,0.0,0.0,90,0.00,,CLR,0.00,229.00,VWS V14.01,2013-08-18 12:04:00,
2013-08-18 08:09:00,63.6,60.6,30.28,NE,36,0.0,2.0,90,0.00,,CLR,0.00,97.00,VWS V14.01,2013-08-18 12:09:00,
2013-08-18 08:14:00,63.8,60.5,30.28,NE,36,0.0,1.0,89,0.00,,CLR,0.00,174.00,VWS V14.01,2013-08-18 12:14:00,
2013-08-18 08:19:00,64.0,60.7,30.28,NE,36,0.0,2.0,89,0.00,,CLR,0.00,125.00,VWS V14.01,2013-08-18 12:19:00,
2013-08-18 08:24:00,64.3,60.7,30.28,NE,36,0.0,1.0,88,0.00,,CLR,0.00,142.00,VWS V14.01,2013-08-18 12:24:00,
2013-08-18 08:29:00,64.6,61.3,30.27,NE,36,0.0,1.0,89,0.00,,CLR,0.00,190.00,VWS V14.01,2013-08-18 12:29:00,
2013-08-18 08:34:00,65.0,61.4,30.27,NE,36,0.0,2.0,88,0.00,,CLR,0.00,181.00,VWS V14.01,2013-08-18 12:34:00,
2013-08-18 08:39:00,65.4,61.8,30.27,NE,36,0.0,2.0,88,0.00,,CLR,0.00,202.00,VWS V14.01,2013-08-18 12:39:00,
2013-08-18 08:44:00,65.6,61.3,30.27,NE,36,0.0,0.0,86,0.00,,CLR,0.00,178.00,VWS V14.01,2013-08-18 12:44:00,
2013-08-18 08:49:00,65.9,61.9,30.27,NE,36,0.0,0.0,87,0.00,,CLR,0.00,178.00,VWS V14.01,2013-08-18 12:49:00,
2013-08-18 08:54:00,66.2,62.2,30.27,NE,36,0.0,3.0,87,0.00,,CLR,0.00,380.00,VWS V14.01,2013-08-18 12:54:00,
2013-08-18 08:59:00,66.7,62.0,30.27,NE,36,0.0,3.0,85,0.00,,CLR,0.00,204.00,VWS V14.01,2013-08-18 12:59:00,
2013-08-18 09:04:00,67.1,62.5,30.27,NE,36,0.0,1.0,85,0.00,,CLR,0.00,227.00,VWS V14.01,2013-08-18 13:04:00,
2013-08-18 09:09:00,67.4,62.1,30.27,NE,36,0.0,1.0,83,0.00,,CLR,0.00,515.00,VWS V14.01,2013-08-18 13:09:00,
2013-08-18 09:15:00,68.0,62.7,30.27,NE,36,0.0,2.0,83,0.00,,CLR,0.00,552.00,VWS V14.01,2013-08-18 13:15:00,
2013-08-18 09:20:00,68.8,62.7,30.27,NE,36,0.0,2.0,81,0.00,,CLR,0.00,568.00,VWS V14.01,2013-08-18 13:20:00,
2013-08-18 09:25:00,69.4,63.0,30.27,NE,36,0.0,0.0,80,0.00,,CLR,0.00,575.00,VWS V14.01,2013-08-18 13:25:00,
2013-08-18 09:30:00,70.0,63.2,30.27,NE,36,0.0,1.0,79,0.00,,CLR,0.00,469.00,VWS V14.01,2013-08-18 13:30:00,
2013-08-18 09:35:00,70.6,63.4,30.27,NE,36,0.0,0.0,78,0.00,,CLR,0.00,543.00,VWS V14.01,2013-08-18 13:35:00,
2013-08-18 09:40:00,71.1,63.9,30.27,NE,36,0.0,0.0,78,0.00,,CLR,0.00,570.00,VWS V14.01,2013-08-18 13:40:00,
2013-08-18 09:45:00,71.6,63.6,30.26,NE,36,0.0,0.0,76,0.00,,CLR,0.00,682.00,VWS V14.01,2013-08-18 13:45:00,
2013-08-18 09:50:00,72.1,64.5,30.27,NE,36,0.0,0.0,77,0.00,,CLR,0.00,693.00,VWS V14.01,2013-08-18 13:50:00,
2013-08-18 09:55:00,72.9,63.8,30.27,NE,36,0.0,0.0,73,0.00,,CLR,0.00,728.00,VWS V14.01,2013-08-18 13:55:00,
2013-08-18 10:00:00,73.7,65.3,30.26,ESE,109,0.0,3.0,75,0.00,,CLR,0.00,712.00,VWS V14.01,2013-08-18 14:00:00,
2013-08-18 10:05:00,74.2,64.2,30.26,ESE,109,0.0,3.0,71,0.00,,CLR,0.00,779.00,VWS V14.01,2013-08-18 14:05:00,
2013-08-18 10:10:00,74.5,65.3,30.26,ESE,109,1.0,3.0,73,0.00,,CLR,0.00,780.00,VWS V14.01,2013-08-18 14:10:00,
2013-08-18 10:15:00,74.6,64.6,30.26,ESE,109,0.0,2.0,71,0.00,,CLR,0.00,431.00,VWS V14.01,2013-08-18 14:15:00,
2013-08-18 10:20:00,74.7,65.9,30.26,SW,216,0.0,2.0,74,0.00,,CLR,0.00,501.00,VWS V14.01,2013-08-18 14:20:00,
2013-08-18 10:25:00,75.0,65.4,30.26,SW,216,0.0,0.0,72,0.00,,CLR,0.00,501.00,VWS V14.01,2013-08-18 14:25:00,
2013-08-18 10:30:00,75.5,65.0,30.26,SW,216,1.0,1.0,70,0.00,,CLR,0.00,650.00,VWS V14.01,2013-08-18 14:30:00,
2013-08-18 10:35:00,76.0,65.9,30.26,SW,216,0.0,0.0,71,0.00,,CLR,0.00,650.00,VWS V14.01,2013-08-18 14:35:00,
2013-08-18 10:40:00,76.4,65.9,30.26,SW,216,0.0,0.0,70,0.00,,CLR,0.00,879.00,VWS V14.01,2013-08-18 14:40:00,
2013-08-18 10:45:00,76.9,65.5,30.26,SW,216,0.0,0.0,68,0.00,,CLR,0.00,863.00,VWS V14.01,2013-08-18 14:45:00,
2013-08-18 10:50:00,77.9,66.9,30.26,SSW,198,0.0,4.0,69,0.00,,CLR,0.00,821.00,VWS V14.01,2013-08-18 14:50:00,
2013-08-18 10:55:00,78.4,66.1,30.26,SSW,198,0.0,0.0,66,0.00,,CLR,0.00,821.00,VWS V14.01,2013-08-18 14:55:00,
2013-08-18 11:00:00,78.7,66.8,30.26,SSW,198,0.0,2.0,67,0.00,,CLR,0.00,793.00,VWS V14.01,2013-08-18 15:00:00,
2013-08-18 11:05:00,78.7,66.0,30.26,SSW,198,0.0,0.0,65,0.00,,FEW060,0.00,782.00,VWS V14.01,2013-08-18 15:05:00,
2013-08-18 11:10:00,79.2,67.7,30.25,SSW,198,0.0,3.0,68,0.00,,FEW060,0.00,886.00,VWS V14.01,2013-08-18 15:10:00,
2013-08-18 11:15:00,79.1,66.3,30.25,SSW,198,0.0,2.0,65,0.00,,FEW060,0.00,768.00,VWS V14.01,2013-08-18 15:15:00,
2013-08-18 11:20:00,79.4,66.6,30.25,SSW,198,0.0,2.0,65,0.00,,FEW060,0.00,919.00,VWS V14.01,2013-08-18 15:20:00,
2013-08-18 11:25:00,79.9,65.3,30.25,SSW,198,0.0,3.0,61,0.00,,FEW060,0.00,759.00,VWS V14.01,2013-08-18 15:25:00,
2013-08-18 11:30:00,79.9,65.3,30.25,SSW,198,0.0,0.0,61,0.00,,FEW060,0.00,466.00,VWS V14.01,2013-08-18 15:30:00,
2013-08-18 11:35:00,79.7,65.5,30.25,SSW,198,0.0,0.0,62,0.00,,FEW060,0.00,455.00,VWS V14.01,2013-08-18 15:35:00,
2013-08-18 11:40:00,79.3,67.4,30.25,SSW,198,0.0,0.0,67,0.00,,FEW060,0.00,633.00,VWS V14.01,2013-08-18 15:40:00,
2013-08-18 11:45:00,79.2,66.0,30.25,SSW,198,0.0,1.0,64,0.00,,FEW060,0.00,721.00,VWS V14.01,2013-08-18 15:45:00,
2013-08-18 11:50:00,79.3,65.2,30.25,SSW,198,0.0,0.0,62,0.00,,FEW060,0.00,784.00,VWS V14.01,2013-08-18 15:50:00,
2013-08-18 11:55:00,79.6,66.4,30.24,SSW,198,0.0,2.0,64,0.00,,FEW060,0.00,1020.00,VWS V14.01,2013-08-18 15:55:00,
2013-08-18 12:00:00,80.0,67.2,30.24,South,178,0.0,0.0,65,0.00,,FEW060,0.00,1058.00,VWS V14.01,2013-08-18 16:00:00,
2013-08-18 12:05:00,80.2,66.0,30.24,SSE,161,0.0,3.0,62,0.00,,CLR,0.00,438.00,VWS V14.01,2013-08-18 16:05:00,
2013-08-18 12:10:00,79.9,66.2,30.24,SSE,161,0.0,0.0,63,0.00,,CLR,0.00,508.00,VWS V14.01,2013-08-18 16:10:00,
2013-08-18 12:15:00,79.7,64.1,30.23,SSE,161,2.0,2.0,59,0.00,,CLR,0.00,582.00,VWS V14.01,2013-08-18 16:15:00,
2013-08-18 12:20:00,80.0,66.7,30.23,SSE,161,0.0,0.0,64,0.00,,CLR,0.00,701.00,VWS V14.01,2013-08-18 16:20:00,
2013-08-18 12:25:00,80.2,66.0,30.23,SE,144,0.0,1.0,62,0.00,,CLR,0.00,668.00,VWS V14.01,2013-08-18 16:25:00,
2013-08-18 12:30:00,80.7,66.0,30.23,SE,144,0.0,0.0,61,0.00,,CLR,0.00,626.00,VWS V14.01,2013-08-18 16:30:00,
2013-08-18 12:35:00,80.9,66.2,30.23,SSE,150,0.0,4.0,61,0.00,,CLR,0.00,649.00,VWS V14.01,2013-08-18 16:35:00,
2013-08-18 12:40:00,80.8,67.5,30.23,SSE,159,1.0,1.0,64,0.00,,CLR,0.00,721.00,VWS V14.01,2013-08-18 16:40:00,
2013-08-18 12:45:00,80.9,64.8,30.23,SSE,159,0.0,1.0,58,0.00,,CLR,0.00,396.00,VWS V14.01,2013-08-18 16:45:00,
2013-08-18 12:50:00,80.9,64.2,30.23,SSE,159,0.0,0.0,57,0.00,,CLR,0.00,610.00,VWS V14.01,2013-08-18 16:50:00,
2013-08-18 12:55:00,80.7,64.6,30.23,SSE,159,0.0,3.0,58,0.00,,CLR,0.00,373.00,VWS V14.01,2013-08-18 16:55:00,
2013-08-18 13:00:00,80.4,64.8,30.23,SSE,159,0.0,0.0,59,0.00,,CLR,0.00,445.00,VWS V14.01,2013-08-18 17:00:00,
2013-08-18 13:05:00,80.2,66.0,30.23,SE,146,0.0,3.0,62,0.00,,CLR,0.00,541.00,VWS V14.01,2013-08-18 17:05:00,
2013-08-18 13:10:00,80.0,63.4,30.22,East,96,0.0,1.0,57,0.00,,CLR,0.00,605.00,VWS V14.01,2013-08-18 17:10:00,
2013-08-18 13:16:00,80.0,63.4,30.22,East,81,0.0,3.0,57,0.00,,CLR,0.00,431.00,VWS V14.01,2013-08-18 17:16:00,
2013-08-18 13:21:00,79.7,64.6,30.22,SSW,193,0.0,0.0,60,0.00,,CLR,0.00,424.00,VWS V14.01,2013-08-18 17:21:00,
2013-08-18 13:26:00,79.2,63.2,30.22,SSW,194,2.0,2.0,58,0.00,,CLR,0.00,396.00,VWS V14.01,2013-08-18 17:26:00,
2013-08-18 13:31:00,78.9,64.8,30.21,SSW,194,3.0,3.0,62,0.00,,CLR,0.00,390.00,VWS V14.01,2013-08-18 17:31:00,
2013-08-18 13:36:00,78.7,64.1,30.22,SSW,194,0.0,3.0,61,0.00,,CLR,0.00,487.00,VWS V14.01,2013-08-18 17:36:00,
2013-08-18 13:41:00,78.7,65.5,30.21,SSW,194,0.0,0.0,64,0.00,,CLR,0.00,373.00,VWS V14.01,2013-08-18 17:41:00,
2013-08-18 13:46:00,78.5,64.9,30.21,SSW,194,0.0,0.0,63,0.00,,CLR,0.00,290.00,VWS V14.01,2013-08-18 17:46:00,
2013-08-18 13:51:00,78.3,65.6,30.21,SSE,151,0.0,2.0,65,0.00,,CLR,0.00,250.00,VWS V14.01,2013-08-18 17:51:00,
2013-08-18 13:56:00,77.9,63.8,30.21,SSE,155,0.0,3.0,62,0.00,,CLR,0.00,214.00,VWS V14.01,2013-08-18 17:56:00,
2013-08-18 14:01:00,77.5,63.9,30.21,South,179,0.0,0.0,63,0.00,,SCT060,0.00,192.00,VWS V14.01,2013-08-18 18:01:00,
2013-08-18 14:06:00,77.0,64.3,30.21,SE,138,0.0,3.0,65,0.00,,SCT060,0.00,207.00,VWS V14.01,2013-08-18 18:06:00,
2013-08-18 14:11:00,76.6,64.4,30.21,SE,138,0.0,0.0,66,0.00,,SCT060,0.00,206.00,VWS V14.01,2013-08-18 18:11:00,
2013-08-18 14:16:00,76.2,64.4,30.21,SE,125,0.0,2.0,67,0.00,,SCT060,0.00,230.00,VWS V14.01,2013-08-18 18:16:00,
2013-08-18 14:21:00,76.0,64.7,30.21,SE,125,0.0,0.0,68,0.00,,SCT060,0.00,225.00,VWS V14.01,2013-08-18 18:21:00,
2013-08-18 14:26:00,75.8,64.5,30.20,SE,125,1.0,1.0,68,0.00,,SCT060,0.00,313.00,VWS V14.01,2013-08-18 18:26:00,
2013-08-18 14:31:00,75.9,64.6,30.20,SE,125,0.0,0.0,68,0.00,,SCT060,0.00,468.00,VWS V14.01,2013-08-18 18:31:00,
2013-08-18 14:36:00,76.3,64.6,30.20,South,186,0.0,4.0,67,0.00,,SCT060,0.00,302.00,VWS V14.01,2013-08-18 18:36:00,
2013-08-18 14:41:00,76.6,64.8,30.20,South,175,0.0,0.0,67,0.00,,SCT060,0.00,232.00,VWS V14.01,2013-08-18 18:41:00,
2013-08-18 14:46:00,76.6,65.3,30.19,South,175,0.0,0.0,68,0.00,,SCT060,0.00,185.00,VWS V14.01,2013-08-18 18:46:00,
2013-08-18 14:51:00,76.4,64.6,30.19,South,175,0.0,0.0,67,0.00,,SCT060,0.00,158.00,VWS V14.01,2013-08-18 18:51:00,
2013-08-18 14:56:00,76.3,64.1,30.19,South,175,0.0,2.0,66,0.00,,SCT060,0.00,162.00,VWS V14.01,2013-08-18 18:56:00,
2013-08-18 15:01:00,76.1,65.2,30.19,South,175,0.0,0.0,69,0.00,,CLR,0.00,165.00,VWS V14.01,2013-08-18 19:01:00,
2013-08-18 15:06:00,75.9,64.6,30.19,South,175,0.0,0.0,68,0.00,,CLR,0.00,190.00,VWS V14.01,2013-08-18 19:06:00,
2013-08-18 15:11:00,75.8,64.5,30.18,South,175,0.0,0.0,68,0.00,,CLR,0.00,239.00,VWS V14.01,2013-08-18 19:11:00,
2013-08-18 15:16:00,75.6,65.1,30.18,South,175,0.0,0.0,70,0.00,,CLR,0.00,206.00,VWS V14.01,2013-08-18 19:16:00,
2013-08-18 15:21:00,75.4,64.9,30.18,SSE,156,0.0,0.0,70,0.00,,CLR,0.00,193.00,VWS V14.01,2013-08-18 19:21:00,
2013-08-18 15:26:00,75.4,64.9,30.18,SSE,156,0.0,0.0,70,0.00,,CLR,0.00,188.00,VWS V14.01,2013-08-18 19:26:00,
2013-08-18 15:31:00,75.3,65.7,30.18,SSE,155,0.0,0.0,72,0.00,,CLR,0.00,192.00,VWS V14.01,2013-08-18 19:31:00,
2013-08-18 15:36:00,75.2,64.8,30.17,SSE,155,0.0,2.0,70,0.00,,CLR,0.00,199.00,VWS V14.01,2013-08-18 19:36:00,
2013-08-18 15:41:00,75.2,66.3,30.17,SSE,155,0.0,0.0,74,0.00,,CLR,0.00,193.00,VWS V14.01,2013-08-18 19:41:00,
2013-08-18 15:46:00,75.2,66.0,30.17,SSE,155,0.0,0.0,73,0.00,,CLR,0.00,202.00,VWS V14.01,2013-08-18 19:46:00,
2013-08-18 15:51:00,75.2,66.0,30.17,SSE,155,0.0,0.0,73,0.00,,CLR,0.00,207.00,VWS V14.01,2013-08-18 19:51:00,
2013-08-18 15:56:00,75.2,66.3,30.17,SSE,155,0.0,0.0,74,0.00,,CLR,0.00,206.00,VWS V14.01,2013-08-18 19:56:00,
2013-08-18 16:01:00,75.1,65.9,30.17,SSE,155,0.0,0.0,73,0.00,,BKN070,0.00,183.00,VWS V14.01,2013-08-18 20:01:00,
2013-08-18 16:06:00,75.2,66.3,30.16,SSE,155,0.0,0.0,74,0.00,,BKN070,0.00,167.00,VWS V14.01,2013-08-18 20:06:00,
2013-08-18 16:11:00,75.1,66.6,30.16,SSE,155,0.0,0.0,75,0.00,,BKN070,0.00,155.00,VWS V14.01,2013-08-18 20:11:00,
2013-08-18 16:16:00,74.9,66.1,30.16,SSE,155,0.0,0.0,74,0.00,,BKN070,0.00,149.00,VWS V14.01,2013-08-18 20:16:00,
2013-08-18 16:21:00,74.8,66.3,30.16,SSE,155,0.0,0.0,75,0.00,,BKN070,0.00,144.00,VWS V14.01,2013-08-18 20:21:00,
2013-08-18 16:26:00,74.8,66.0,30.16,SSE,155,0.0,0.0,74,0.00,,BKN070,0.00,146.00,VWS V14.01,2013-08-18 20:26:00,
2013-08-18 16:31:00,74.7,65.5,30.15,SSE,155,0.0,0.0,73,0.00,,BKN070,0.00,146.00,VWS V14.01,2013-08-18 20:31:00,
2013-08-18 16:37:00,74.6,65.8,30.15,SSE,155,0.0,0.0,74,0.00,,BKN070,0.00,146.00,VWS V14.01,2013-08-18 20:37:00,
2013-08-18 16:42:00,74.6,66.2,30.15,SSE,155,0.0,0.0,75,0.00,,BKN070,0.00,141.00,VWS V14.01,2013-08-18 20:42:00,
2013-08-18 16:47:00,74.6,66.9,30.15,SSE,155,0.0,0.0,77,0.00,,BKN070,0.00,130.00,VWS V14.01,2013-08-18 20:47:00,
2013-08-18 16:52:00,74.5,66.1,30.15,SSE,155,0.0,0.0,75,0.00,,BKN070,0.00,134.00,VWS V14.01,2013-08-18 20:52:00,
2013-08-18 16:57:00,74.4,66.3,30.15,SSE,155,0.0,0.0,76,0.00,,BKN070,0.00,134.00,VWS V14.01,2013-08-18 20:57:00,
2013-08-18 17:02:00,74.2,66.2,30.15,SSE,155,0.0,0.0,76,0.00,,BKN060,0.00,128.00,VWS V14.01,2013-08-18 21:02:00,
2013-08-18 17:07:00,74.2,66.5,30.15,SSE,155,0.0,0.0,77,0.00,,BKN060,0.00,121.00,VWS V14.01,2013-08-18 21:07:00,
2013-08-18 17:12:00,74.1,66.4,30.15,SSE,155,0.0,0.0,77,0.00,,BKN060,0.00,118.00,VWS V14.01,2013-08-18 21:12:00,
2013-08-18 17:17:00,74.0,66.0,30.15,SSE,155,0.0,0.0,76,0.00,,BKN060,0.00,114.00,VWS V14.01,2013-08-18 21:17:00,
2013-08-18 17:22:00,73.9,65.9,30.15,SSE,155,0.0,0.0,76,0.00,,BKN060,0.00,107.00,VWS V14.01,2013-08-18 21:22:00,
2013-08-18 17:27:00,73.9,65.5,30.15,SSE,155,0.0,0.0,75,0.00,,BKN060,0.00,104.00,VWS V14.01,2013-08-18 21:27:00,
2013-08-18 17:32:00,73.7,65.7,30.14,SSE,155,0.0,0.0,76,0.00,,BKN060,0.00,109.00,VWS V14.01,2013-08-18 21:32:00,
2013-08-18 17:37:00,73.6,65.6,30.14,SSE,155,0.0,0.0,76,0.00,,BKN060,0.00,104.00,VWS V14.01,2013-08-18 21:37:00,
2013-08-18 17:42:00,73.5,65.5,30.14,SSE,155,0.0,0.0,76,0.00,,BKN060,0.00,102.00,VWS V14.01,2013-08-18 21:42:00,
2013-08-18 17:47:00,73.4,65.8,30.14,SSE,155,0.0,0.0,77,0.00,,BKN060,0.00,97.00,VWS V14.01,2013-08-18 21:47:00,
2013-08-18 17:52:00,73.4,66.1,30.14,SSE,155,0.0,0.0,78,0.00,,BKN060,0.00,93.00,VWS V14.01,2013-08-18 21:52:00,
2013-08-18 17:57:00,73.3,65.7,30.14,SSE,155,0.0,0.0,77,0.00,,BKN060,0.00,88.00,VWS V14.01,2013-08-18 21:57:00,
2013-08-18 18:02:00,73.2,65.9,30.14,SSE,155,0.0,0.0,78,0.00,,CLR,0.00,81.00,VWS V14.01,2013-08-18 22:02:00,
2013-08-18 18:07:00,73.2,65.6,30.14,SSE,155,0.0,0.0,77,0.00,,CLR,0.00,74.00,VWS V14.01,2013-08-18 22:07:00,
2013-08-18 18:12:00,73.2,65.6,30.14,SSE,155,0.0,0.0,77,0.00,,CLR,0.00,74.00,VWS V14.01,2013-08-18 22:12:00,
2013-08-18 18:17:00,73.1,65.5,30.13,SSE,155,0.0,0.0,77,0.00,,CLR,0.00,69.00,VWS V14.01,2013-08-18 22:17:00,
2013-08-18 18:22:00,73.0,65.4,30.13,SSE,155,0.0,0.0,77,0.00,,CLR,0.00,62.00,VWS V14.01,2013-08-18 22:22:00,
2013-08-18 18:27:00,72.8,65.6,30.13,SSE,155,0.0,0.0,78,0.00,,CLR,0.00,49.00,VWS V14.01,2013-08-18 22:27:00,
2013-08-18 18:32:00,72.8,66.6,30.13,SSE,155,0.0,0.0,81,0.00,,CLR,0.00,44.00,VWS V14.01,2013-08-18 22:32:00,
2013-08-18 18:37:00,72.8,66.6,30.13,SSE,155,0.0,0.0,81,0.00,,CLR,0.00,33.00,VWS V14.01,2013-08-18 22:37:00,
2013-08-18 18:42:00,72.7,66.2,30.13,SSE,155,0.0,0.0,80,0.00,,CLR,0.00,30.00,VWS V14.01,2013-08-18 22:42:00,
2013-08-18 18:47:00,72.4,66.2,30.13,SSE,155,0.0,0.0,81,0.00,,CLR,0.00,32.00,VWS V14.01,2013-08-18 22:47:00,
2013-08-18 18:52:00,72.1,66.3,30.12,SSE,155,0.0,0.0,82,0.00,,CLR,0.00,28.00,VWS V14.01,2013-08-18 22:52:00,
2013-08-18 18:57:00,71.9,66.1,30.12,SSE,155,0.0,0.0,82,0.00,,CLR,0.00,26.00,VWS V14.01,2013-08-18 22:57:00,
2013-08-18 19:02:00,71.7,65.2,30.12,SSE,155,0.0,0.0,80,0.00,,CLR,0.00,23.00,VWS V14.01,2013-08-18 23:02:00,
2013-08-18 19:07:00,71.4,65.3,30.13,SSE,155,0.0,0.0,81,0.00,,CLR,0.00,18.00,VWS V14.01,2013-08-18 23:07:00,
2013-08-18 19:12:00,71.3,65.9,30.13,SSE,155,0.0,0.0,83,0.00,,CLR,0.00,14.00,VWS V14.01,2013-08-18 23:12:00,
2013-08-18 19:17:00,71.0,65.9,30.12,SSE,155,0.0,0.0,84,0.00,,CLR,0.00,14.00,VWS V14.01,2013-08-18 23:17:00,
2013-08-18 19:22:00,70.7,65.6,30.12,SSE,155,0.0,0.0,84,0.00,,CLR,0.00,9.00,VWS V14.01,2013-08-18 23:22:00,
2013-08-18 19:27:00,70.4,65.0,30.12,SSE,155,0.0,0.0,83,0.00,,CLR,0.00,5.00,VWS V14.01,2013-08-18 23:27:00,
2013-08-18 19:32:00,70.1,65.1,30.12,SSE,155,0.0,0.0,84,0.00,,CLR,0.00,0.00,VWS V14.01,2013-08-18 23:32:00,
2013-08-18 19:37:00,69.9,64.2,30.12,SSE,155,0.0,0.0,82,0.00,,CLR,0.00,0.00,VWS V14.01,2013-08-18 23:37:00,
2013-08-18 19:42:00,69.6,63.5,30.13,SSE,155,0.0,0.0,81,0.00,,CLR,0.00,0.00,VWS V14.01,2013-08-18 23:42:00,
2013-08-18 19:47:00,69.4,63.3,30.13,SSE,155,0.0,0.0,81,0.00,,CLR,0.00,0.00,VWS V14.01,2013-08-18 23:47:00,
2013-08-18 19:52:00,69.2,63.5,30.13,SSE,155,0.0,0.0,82,0.00,,CLR,0.00,0.00,VWS V14.01,2013-08-18 23:52:00,
2013-08-18 19:57:00,69.0,63.3,30.13,SSE,155,0.0,0.0,82,0.00,,CLR,0.00,0.00,VWS V14.01,2013-08-18 23:57:00,
2013-08-18 20:02:00,68.8,63.1,30.13,SSE,155,0.0,0.0,82,0.00,,CLR,0.00,0.00,VWS V14.01,2013-08-19 00:02:00,
2013-08-18 20:07:00,68.6,62.9,30.13,SSE,155,0.0,0.0,82,0.00,,CLR,0.00,0.00,VWS V14.01,2013-08-19 00:07:00,
2013-08-18 20:13:00,68.4,62.3,30.13,SSE,155,0.0,0.0,81,0.00,,CLR,0.00,0.00,VWS V14.01,2013-08-19 00:13:00,
2013-08-18 20:18:00,68.1,62.4,30.13,SSE,155,0.0,0.0,82,0.00,,CLR,0.00,0.00,VWS V14.01,2013-08-19 00:18:00,
2013-08-18 20:23:00,67.9,62.5,30.13,SSE,155,0.0,0.0,83,0.00,,CLR,0.00,0.00,VWS V14.01,2013-08-19 00:23:00,
2013-08-18 20:28:00,67.7,62.4,30.12,SSE,155,0.0,0.0,83,0.00,,CLR,0.00,0.00,VWS V14.01,2013-08-19 00:28:00,
2013-08-18 20:33:00,67.6,62.3,30.13,SSE,155,0.0,0.0,83,0.00,,CLR,0.00,0.00,VWS V14.01,2013-08-19 00:33:00,
2013-08-18 20:38:00,67.4,62.4,30.12,SSE,155,0.0,0.0,84,0.00,,CLR,0.00,0.00,VWS V14.01,2013-08-19 00:38:00,
2013-08-18 20:43:00,67.3,62.3,30.13,SSE,155,0.0,0.0,84,0.00,,CLR,0.00,0.00,VWS V14.01,2013-08-19 00:43:00,
2013-08-18 20:48:00,67.2,62.5,30.12,SSE,155,0.0,0.0,85,0.00,,CLR,0.00,0.00,VWS V14.01,2013-08-19 00:48:00,
2013-08-18 20:53:00,67.1,62.8,30.12,SSE,155,0.0,0.0,86,0.00,,CLR,0.00,0.00,VWS V14.01,2013-08-19 00:53:00,
2013-08-18 20:58:00,66.9,62.6,30.12,SSE,155,0.0,0.0,86,0.00,,CLR,0.00,0.00,VWS V14.01,2013-08-19 00:58:00,
2013-08-18 21:03:00,66.8,62.5,30.12,SSE,155,0.0,0.0,86,0.00,,CLR,0.00,0.00,VWS V14.01,2013-08-19 01:03:00,
2013-08-18 21:08:00,66.6,62.6,30.12,SSE,155,0.0,0.0,87,0.00,,CLR,0.00,0.00,VWS V14.01,2013-08-19 01:08:00,
2013-08-18 21:13:00,66.4,62.4,30.12,SSE,155,0.0,0.0,87,0.00,,CLR,0.00,0.00,VWS V14.01,2013-08-19 01:13:00,
2013-08-18 21:18:00,66.3,62.3,30.12,SSE,155,0.0,0.0,87,0.00,,CLR,0.00,0.00,VWS V14.01,2013-08-19 01:18:00,
2013-08-18 21:23:00,66.1,62.1,30.11,SSE,155,0.0,1.0,87,0.00,,CLR,0.00,0.00,VWS V14.01,2013-08-19 01:23:00,
2013-08-18 21:28:00,66.1,62.1,30.11,SSE,155,0.0,3.0,87,0.00,,CLR,0.00,0.00,VWS V14.01,2013-08-19 01:28:00,
2013-08-18 21:33:00,66.1,62.5,30.11,SSE,155,0.0,0.0,88,0.00,,CLR,0.00,0.00,VWS V14.01,2013-08-19 01:33:00,
2013-08-18 21:38:00,66.0,62.3,30.11,SSE,155,0.0,0.0,88,0.00,,CLR,0.00,0.00,VWS V14.01,2013-08-19 01:38:00,
2013-08-18 21:43:00,65.9,62.2,30.11,SSE,155,0.0,0.0,88,0.00,,CLR,0.00,0.00,VWS V14.01,2013-08-19 01:43:00,
2013-08-18 21:48:00,65.8,62.2,30.11,SSE,155,0.0,0.0,88,0.00,,CLR,0.00,0.00,VWS V14.01,2013-08-19 01:48:00,
2013-08-18 21:53:00,65.7,62.0,30.11,SSE,155,0.0,0.0,88,0.00,,CLR,0.00,0.00,VWS V14.01,2013-08-19 01:53:00,
2013-08-18 21:58:00,65.6,62.0,30.11,SSE,155,0.0,0.0,88,0.00,,CLR,0.00,0.00,VWS V14.01,2013-08-19 01:58:00,
2013-08-18 22:03:00,65.4,61.8,30.11,SSE,155,0.0,0.0,88,0.00,,CLR,0.00,0.00,VWS V14.01,2013-08-19 02:03:00,
2013-08-18 22:08:00,65.3,62.0,30.11,SSE,155,0.0,0.0,89,0.00,,CLR,0.00,0.00,VWS V14.01,2013-08-19 02:08:00,
2013-08-18 22:13:00,65.2,61.9,30.10,SSE,155,0.0,0.0,89,0.00,,CLR,0.00,0.00,VWS V14.01,2013-08-19 02:13:00,
2013-08-18 22:18:00,65.1,61.8,30.10,SSE,155,0.0,0.0,89,0.00,,CLR,0.00,0.00,VWS V14.01,2013-08-19 02:18:00,
2013-08-18 22:23:00,65.0,61.7,30.10,SSE,155,0.0,0.0,89,0.00,,CLR,0.00,0.00,VWS V14.01,2013-08-19 02:23:00,
2013-08-18 22:28:00,64.9,61.6,30.10,SSE,155,0.0,1.0,89,0.00,,CLR,0.00,0.00,VWS V14.01,2013-08-19 02:28:00,
2013-08-18 22:33:00,64.8,61.5,30.10,SSE,155,0.0,0.0,89,0.00,,CLR,0.00,0.00,VWS V14.01,2013-08-19 02:33:00,
2013-08-18 22:38:00,64.7,61.4,30.10,SSE,155,0.0,0.0,89,0.00,,CLR,0.00,0.00,VWS V14.01,2013-08-19 02:38:00,
2013-08-18 22:43:00,64.6,61.6,30.09,SSE,155,0.0,0.0,90,0.00,,CLR,0.00,0.00,VWS V14.01,2013-08-19 02:43:00,
2013-08-18 22:48:00,64.5,61.2,30.09,SSE,155,0.0,0.0,89,0.00,,CLR,0.00,0.00,VWS V14.01,2013-08-19 02:48:00,
2013-08-18 22:53:00,64.4,61.4,30.09,SSE,155,0.0,0.0,90,0.00,,CLR,0.00,0.00,VWS V14.01,2013-08-19 02:53:00,
2013-08-18 22:58:00,64.3,61.3,30.09,SSE,155,0.0,0.0,90,0.00,,CLR,0.00,0.00,VWS V14.01,2013-08-19 02:58:00,
2013-08-18 23:03:00,64.2,61.2,30.09,SSE,155,0.0,0.0,90,0.00,,CLR,0.00,0.00,VWS V14.01,2013-08-19 03:03:00,
2013-08-18 23:08:00,64.1,61.1,30.08,SSE,155,0.0,0.0,90,0.00,,CLR,0.00,0.00,VWS V14.01,2013-08-19 03:08:00,
2013-08-18 23:13:00,64.0,61.0,30.09,SSE,155,0.0,0.0,90,0.00,,CLR,0.00,0.00,VWS V14.01,2013-08-19 03:13:00,
2013-08-18 23:18:00,63.9,60.9,30.09,SSE,155,0.0,0.0,90,0.00,,CLR,0.00,0.00,VWS V14.01,2013-08-19 03:18:00,
2013-08-18 23:23:00,63.8,60.8,30.08,SSE,155,0.0,0.0,90,0.00,,CLR,0.00,0.00,VWS V14.01,2013-08-19 03:23:00,
2013-08-18 23:28:00,63.7,61.0,30.08,SSE,155,0.0,0.0,91,0.00,,CLR,0.00,0.00,VWS V14.01,2013-08-19 03:28:00,
2013-08-18 23:33:00,63.6,60.9,30.08,SSE,155,0.0,0.0,91,0.00,,CLR,0.00,0.00,VWS V14.01,2013-08-19 03:33:00,
2013-08-18 23:38:00,63.5,60.8,30.09,SSE,155,0.0,0.0,91,0.00,,CLR,0.00,0.00,VWS V14.01,2013-08-19 03:38:00,
2013-08-18 23:43:00,63.4,60.7,30.08,SSE,155,0.0,0.0,91,0.00,,CLR,0.00,0.00,VWS V14.01,2013-08-19 03:43:00,
2013-08-18 23:48:00,63.3,60.6,30.08,SSE,155,0.0,0.0,91,0.00,,CLR,0.00,0.00,VWS V14.01,2013-08-19 03:48:00,
2013-08-18 23:53:00,63.1,60.7,30.08,SSE,155,0.0,0.0,92,0.00,,CLR,0.00,0.00,VWS V14.01,2013-08-19 03:53:00,
2013-08-18 23:58:00,63.1,60.7,30.08,SSE,155,0.0,0.0,92,0.00,,CLR,0.00,0.00,VWS V14.01,2013-08-19 03:58:00,